Location: Stuttgart
(48.8069°N, 9.1544°E)
Time: 20:21:33
(UTC+01:00)

Envisat - Visible Passes

Search period start: 21 February 2018 00:00
Search period end: 03 March 2018 00:00
Orbit: 764 x 766 km, 98.2° (Epoch: 21 February)

Date Brightness Start Highest point End Pass type
(mag) Time Alt. Az. Time Alt. Az. Time Alt. Az.
21 Feb 3.2 19:55:18 10° S 20:00:22 72° WSW 20:05:29 10° NNW visible
21 Feb 6.0 21:39:45 10° W 21:40:19 10° W 21:40:53 10° WNW visible
22 Feb 3.0 19:18:43 10° SSE 19:23:41 58° ENE 19:28:41 10° N visible
22 Feb 5.3 20:59:12 10° SW 21:03:04 22° W 21:06:58 10° NW visible
23 Feb 3.8 18:42:48 10° ESE 18:47:11 30° ENE 18:51:34 10° N visible
23 Feb 4.1 20:21:14 10° S 20:26:03 43° W 20:30:55 10° NNW visible
24 Feb 3.0 19:44:08 10° SSE 19:49:13 87° WSW 19:54:21 10° NNW visible
24 Feb 5.9 21:26:42 10° WSW 21:29:00 13° W 21:31:19 10° WNW visible
25 Feb 3.2 19:07:45 10° SE 19:12:35 47° ENE 19:17:27 10° N visible
25 Feb 5.0 20:47:35 10° SSW 20:51:50 26° W 20:56:06 10° NW visible
26 Feb 4.0 18:32:04 10° ESE 18:36:09 25° ENE 18:40:14 10° N visible
26 Feb 3.7 20:09:54 10° S 20:14:52 53° W 20:19:52 10° NNW visible
27 Feb 2.9 19:33:01 10° SSE 19:38:05 77° ENE 19:43:12 10° NNW visible
27 Feb 5.7 21:14:35 10° SW 21:17:43 16° W 21:20:51 10° NW visible
28 Feb 3.5 18:56:50 10° SE 19:01:31 39° ENE 19:06:13 10° N visible
28 Feb 4.6 20:36:04 10° SSW 20:40:36 32° W 20:45:10 10° NNW visible
01 Mar 3.3 19:58:39 10° S 20:03:41 66° WSW 20:08:46 10° NNW visible
02 Mar 3.0 19:21:58 10° SSE 19:26:58 63° ENE 19:32:01 10° N visible
02 Mar 5.4 21:02:45 10° SW 21:06:26 20° W 21:10:08 10° NW visible
